Dewpoint
56 58 58 57 57 57 57 58 58 58 58 58 59 59 59 58 58 57 57 56 57 58 59 59 60 61 61 61 62 61 59 51 47 40 39 39 47 54 56 58 59 60 61 56 47 35 30 23 26 23 28 29 32 32 34 31 36 32 28 27 25 27 23 26 20 19 15 11 11 12 12 15 12 14 16 10 10 14 14 14 14 14 13 12 13 23 26 31
57 57 57 57 57 57 57 58 58 58 58 58 59 59 58 59 58 58 58 57 58 59 59 59 60 60 61 61 62 61 54 46 44 43 37 48 53 56 57 59 60 60 60 44 33 31 24 20 20 26 28 27 36 30 31 32 33 30 28 27 26 27 27 23 12 14 13 12 13 12 15 15 12 14 13 11 10 9 9 10 14 13 13 13 21 26 29 30
57 57 57 57 58 58 58 58 58 59 59 58 59 58 58 58 58 58 59 59 59 60 60 59 60 60 61 61 61 59 52 47 44 40 33 52 56 57 59 60 60 59 55 36 38 28 23 21 22 21 28 27 28 27 30 28 30 30 27 25 25 29 27 16 14 14 15 17 13 13 13 12 11 13 13 9 7 9 7 5 6 10 12 12 17 25 32 34
57 57 58 58 58 58 58 58 58 58 58 58 58 59 58 58 58 59 58 59 59 59 59 59 60 61 61 61 61 57 51 42 34 37 43 59 58 57 59 59 58 59 57 53 40 39 31 24 19 21 27 27 28 28 26 26 26 27 26 25 26 29 17 14 16 15 16 15 15 14 14 12 13 12 10 10 7 6 7 6 2 3 8 11 15 28 33 32
57 57 57 57 57 58 58 58 58 58 58 58 58 58 59 59 58 58 57 59 59 58 59 60 60 61 60 61 59 52 42 34 34 40 40 54 57 58 58 57 57 55 56 53 38 37 34 28 30 28 27 24 27 24 22 24 26 25 25 26 26 18 16 16 16 19 16 17 14 15 12 11 15 16 11 10 7 3 4 6 7 4 4 7 12 23 29 29
57 57 57 57 57 58 58 58 58 58 58 58 58 58 59 59 58 58 58 59 59 58 59 60 60 60 61 60 53 50 32 20 39 43 55 57 60 62 61 59 59 54 42 32 30 27 21 21 25 26 23 21 23 21 21 19 21 19 19 19 22 15 16 16 18 20 15 15 14 14 14 14 15 13 14 10 9 7 10 9 8 7 6 6 11 21 27 28
57 57 57 57 57 57 58 58 58 58 58 58 58 59 59 58 59 59 59 59 59 59 59 60 60 61 59 59 51 44 32 34 42 44 55 57 57 58 60 61 54 49 37 29 32 23 30 22 22 26 26 24 24 22 24 21 18 20 18 16 14 16 14 17 18 23 16 14 12 15 19 13 14 8 12 12 11 10 9 10 12 9 10 11 9 20 25 26
56 56 57 57 57 57 57 57 57 58 58 58 58 59 59 59 58 59 59 59 58 58 59 60 60 60 59 51 42 38 37 35 37 43 53 56 46 41 54 49 43 40 33 28 33 35 33 27 21 25 24 20 22 22 20 18 19 16 16 19 18 13 13 16 18 22 19 13 13 17 15 11 12 11 12 10 10 11 12 11 11 14 15 19 11 14 22 24
55 55 56 56 56 56 57 57 57 57 57 58 58 58 58 59 59 59 59 59 59 58 59 60 60 59 58 49 39 27 34 44 39 40 45 41 39 38 42 37 40 34 35 36 37 34 30 27 26 25 19 20 20 19 17 19 17 19 16 19 15 12 14 17 17 17 21 19 19 14 12 13 14 14 13 11 10 10 11 12 12 12 13 14 17 13 18 21
55 55 55 55 55 56 56 56 56 57 57 57 58 58 58 58 58 59 59 59 58 59 59 60 61 59 53 46 40 25 33 46 48 47 44 41 38 40 39 43 41 36 31 34 37 35 31 31 30 31 24 19 17 14 19 19 18 17 16 14 13 12 14 18 14 15 17 22 25 18 13 13 18 12 2 7 11 14 13 11 11 11 10 11 13 17 16 19
54 54 54 55 55 55 55 56 56 56 57 57 57 58 58 58 58 58 58 58 58 59 59 60 60 56 51 46 34 28 44 47 47 43 45 43 38 39 38 41 44 41 35 38 36 40 34 36 39 37 26 19 21 17 18 24 18 16 13 11 9 9 10 15 16 15 14 11 20 17 14 19 22 18 9 2 13 15 13 12 12 11 10 10 10 13 20 19
53 54 54 54 54 54 55 55 55 56 56 56 57 58 57 58 58 57 57 58 58 59 60 61 59 54 50 43 39 37 44 45 46 44 47 46 40 40 42 43 44 42 39 34 43 42 45 41 34 25 22 26 15 11 14 16 16 13 12 8 7 5 2 11 11 13 13 11 20 18 14 11 18 11 10 10 12 12 12 11 12 12 11 11 10 10 12 19
53 53 53 53 54 54 54 55 55 55 56 56 57 57 58 58 57 58 58 58 58 59 59 59 56 54 42 30 39 48 46 47 45 45 46 46 46 43 45 47 46 44 42 41 42 42 45 43 38 29 33 22 16 11 14 17 13 11 9 7 4 7 -1 2 13 16 12 12 21 11 -4 -4 -3 10 8 8 12 14 13 11 10 11 11 11 11 10 10 11
52 52 53 53 53 53 54 54 55 55 55 56 56 57 57 57 58 58 57 57 58 59 59 57 54 50 39 31 43 44 46 49 45 42 44 46 44 42 39 44 46 46 46 45 43 43 43 42 35 32 36 23 18 28 17 13 8 6 5 4 5 0 -0 6 14 13 11 16 18 7 1 -5 -3 -5 -4 -0 12 10 10 11 11 10 10 10 12 12 12 12
52 52 52 52 52 53 53 54 54 55 55 56 56 57 57 57 57 57 57 58 60 60 59 56 52 48 41 41 46 48 58 45 40 43 47 44 46 41 36 45 42 44 44 43 40 45 43 37 29 26 19 28 29 18 18 19 15 14 4 5 17 0 5 13 19 11 9 13 13 6 9 0 -0 1 2 15 18 13 11 11 11 12 12 11 11 12 12 12
51 52 52 52 52 52 53 53 54 55 55 56 56 56 56 57 57 57 57 59 59 60 54 48 50 48 36 33 40 53 46 39 38 44 47 46 44 36 39 46 44 42 40 39 49 45 40 39 27 24 25 19 26 26 24 17 19 23 6 15 16 9 5 7 16 15 17 17 18 6 2 5 5 6 14 19 17 17 12 12 12 12 13 13 13 13 13 14
51 51 52 52 52 52 53 53 54 54 55 55 56 56 57 57 58 59 59 58 58 56 54 49 51 47 32 41 47 46 44 44 45 43 45 47 47 46 43 36 35 38 37 37 37 37 32 30 27 21 30 14 27 24 3 9 11 13 18 6 23 7 8 5 10 20 26 17 13 15 11 8 6 7 7 10 18 17 17 15 14 14 14 14 16 14 14 14
51 51 51 51 52 52 53 53 53 54 55 56 56 55 52 55 57 56 56 56 55 53 53 52 45 38 29 38 33 39 43 45 43 41 45 47 47 46 42 33 34 35 37 29 31 26 28 20 32 18 18 22 21 18 4 5 12 13 11 9 9 19 13 6 9 11 21 22 15 15 14 12 11 12 12 13 13 13 12 13 15 15 16 16 16 16 15 15
50 51 51 51 51 52 53 53 54 54 55 56 56 57 57 57 53 52 51 49 38 31 27 33 31 28 24 36 41 42 42 44 45 45 42 44 44 47 46 42 38 28 27 27 21 25 28 21 20 18 17 14 16 19 9 16 24 22 20 15 19 17 12 5 9 20 20 19 20 18 14 13 13 14 15 17 16 15 15 16 17 19 18 17 16 16 16 17
50 50 50 51 51 52 53 53 54 55 55 53 49 50 43 36 41 41 44 43 35 34 34 40 40 38 38 39 42 44 43 46 39 39 44 44 42 42 37 40 39 36 27 20 27 29 30 12 6 11 16 20 22 23 20 24 24 22 23 21 18 18 14 16 20 22 27 22 20 19 19 18 18 19 20 21 21 20 19 19 20 19 21 22 20 18 17 17
50 50 50 51 51 52 53 54 54 55 55 52 49 42 36 39 30 29 36 41 43 43 41 43 41 38 40 41 42 42 40 38 42 41 42 45 46 32 29 34 35 28 30 29 27 31 26 14 16 17 22 25 29 31 31 29 28 23 20 19 16 19 10 11 24 25 25 23 22 22 21 22 21 21 21 21 21 21 21 21 21 20 20 20 21 22 21 18
50 50 50 51 51 52 53 54 55 55 55 50 47 39 39 41 35 33 30 23 35 42 42 42 43 41 43 43 43 43 39 35 34 39 45 46 41 22 26 35 29 21 31 25 19 22 16 12 19 25 27 31 32 32 32 26 27 25 22 21 15 11 20 20 25 26 25 24 21 22 22 21 21 22 22 22 22 22 23 23 22 23 23 22 22 21 23 22
50 50 50 51 52 53 53 54 55 56 49 42 41 38 35 44 45 45 34 30 29 38 40 39 35 41 40 43 44 44 34 33 30 39 40 42 32 34 33 28 28 30 32 27 23 20 17 20 23 28 32 31 31 29 26 22 26 20 19 14 8 18 16 10 23 28 27 23 24 23 23 23 22 21 21 21 22 23 25 26 25 25 23 23 22 22 23 23
49 50 50 51 52 53 54 54 55 52 48 41 41 38 42 45 44 36 30 26 28 35 40 40 39 40 39 39 44 40 32 32 37 37 43 37 30 31 29 29 27 27 27 26 26 19 19 29 32 30 30 30 28 27 23 17 14 24 20 19 18 21 22 18 20 27 26 25 26 23 19 15 22 23 20 18 21 27 27 27 27 29 29 27 30 30 26 22
49 50 50 50 52 53 53 54 45 44 46 38 38 44 44 44 46 42 29 27 26 32 40 37 39 39 38 44 43 35 37 37 39 40 42 41 36 30 29 35 30 26 27 29 27 24 25 28 32 29 30 28 25 22 23 22 15 22 25 21 19 24 25 27 29 22 21 21 26 23 14 20 21 22 21 17 19 18 19 22 22 24 27 30 30 30 29 29
49 50 50 51 52 53 54 45 40 46 36 33 37 46 44 46 44 44 27 16 13 26 29 27 39 30 40 36 39 38 32 30 38 40 44 39 46 31 32 29 30 27 30 29 29 27 26 29 31 29 29 28 26 23 24 23 18 13 16 29 28 27 26 27 25 21 19 13 20 26 13 15 17 15 16 18 19 17 18 20 23 27 29 28 29 31 31 29
49 50 50 51 52 52 43 40 46 37 33 35 45 45 43 45 45 28 13 15 11 23 26 34 29 30 35 38 39 31 19 21 41 40 38 41 37 39 28 28 26 26 32 27 14 18 29 29 29 29 28 27 25 20 24 25 19 19 25 28 29 26 25 25 23 19 21 24 25 25 21 15 15 15 18 20 18 16 19 21 23 26 28 30 28 29 31 33
49 50 51 51 52 53 42 45 43 36 32 45 45 45 46 46 45 31 22 2 0 30 30 31 36 41 43 41 41 32 29 37 35 36 39 39 42 29 29 33 26 28 27 21 11 21 27 26 28 28 27 24 23 24 27 25 20 22 27 29 27 26 27 26 24 24 24 20 20 22 22 14 18 20 20 20 16 18 19 22 24 25 24 26 29 31 30 31
50 50 51 52 51 52 47 44 43 40 45 44 43 45 47 43 33 26 19 5 9 32 38 28 37 40 38 38 36 37 34 39 37 40 41 42 42 32 26 29 29 29 30 22 14 23 26 26 27 28 26 24 26 27 28 28 23 27 28 29 28 28 27 25 24 24 23 15 18 20 19 10 16 20 17 21 17 19 20 23 24 24 23 21 25 29 31 31
50 51 52 52 47 42 41 43 40 44 42 44 44 45 43 35 29 24 10 5 27 18 33 34 30 30 35 32 34 35 33 35 38 38 39 38 37 36 35 37 30 27 26 32 27 26 31 35 34 28 25 26 27 28 29 30 30 30 30 29 27 27 25 25 25 22 17 13 19 19 19 13 12 21 19 17 20 23 24 19 17 17 18 20 27 29 31 31
50 51 52 51 39 39 40 37 40 43 43 43 44 39 33 27 22 13 -1 5 24 24 30 27 25 32 31 30 28 34 35 36 34 35 31 36 30 34 33 28 34 30 28 29 28 30 31 27 28 30 32 30 28 27 29 30 31 30 27 25 20 23 23 20 17 18 12 13 21 24 21 18 12 17 20 21 20 21 21 16 15 16 17 20 25 29 30 29
51 51 51 47 44 46 31 31 43 42 42 44 40 32 25 10 22 -1 -2 23 10 17 20 26 32 31 32 30 30 30 30 32 34 34 29 31 28 26 28 26 27 19 18 23 21 28 28 27 28 27 33 29 29 27 28 28 28 27 24 23 13 15 13 7 12 8 9 11 17 18 21 17 17 16 15 15 16 16 18 17 16 17 17 21 26 29 31 32
51 51 51 49 48 44 42 41 41 43 44 43 36 30 20 15 2 16 15 15 7 19 16 33 30 32 32 26 26 30 28 27 31 33 33 32 30 29 30 28 29 20 14 22 24 22 26 29 30 28 26 30 28 21 23 22 24 25 21 19 15 7 5 1 2 7 9 16 21 17 19 13 18 17 19 18 18 18 18 19 20 19 20 24 27 29 31 32
51 51 41 43 42 44 44 41 40 44 42 40 28 22 16 3 3 25 8 12 7 24 31 28 29 25 23 25 24 28 26 28 29 29 31 26 26 26 27 30 30 26 24 24 15 20 12 17 21 28 25 28 30 28 27 25 25 23 26 23 19 12 7 3 4 2 6 15 18 21 10 16 10 14 19 18 18 19 18 18 22 27 28 30 30 32 32 31
51 48 43 42 43 43 41 40 40 44 39 33 24 20 5 10 13 10 12 14 20 29 24 26 26 22 22 23 25 28 25 24 29 26 27 25 24 24 25 27 32 29 26 18 24 16 18 19 26 29 29 28 27 30 29 26 24 26 26 24 19 18 19 9 11 10 10 11 12 12 14 20 15 20 21 20 20 20 21 22 25 24 25 27 28 30 31 31
47 44 44 43 45 43 40 41 41 43 32 27 22 11 9 14 2 12 14 26 26 24 28 24 26 22 22 23 23 26 31 26 27 22 21 25 26 23 26 28 30 29 23 20 23 15 17 15 28 28 30 28 28 27 28 27 16 21 22 17 23 23 19 12 13 13 12 10 14 14 17 18 19 14 15 19 18 17 19 21 21 23 25 26 26 28 31 31
41 41 41 42 44 43 40 42 44 38 28 22 19 8 19 13 15 20 36 20 19 28 18 9 15 20 14 16 22 26 26 21 21 19 16 24 23 24 24 26 30 29 27 24 20 23 19 19 26 26 24 27 27 27 28 28 27 22 19 23 25 27 22 16 9 7 6 6 12 14 13 13 11 13 24 16 15 14 16 15 19 21 23 23 24 27 31 32
43 39 41 44 44 42 41 40 41 37 31 24 8 34 18 12 26 31 33 26 28 27 19 12 11 20 15 17 15 26 26 17 21 15 13 20 15 27 25 26 29 30 29 27 17 23 21 16 22 26 26 27 26 26 24 27 27 22 23 25 18 12 12 13 10 5 3 2 5 12 15 16 13 13 16 11 12 12 11 13 15 16 20 22 23 25 27 31
41 36 33 41 43 41 41 41 38 33 23 13 14 13 21 18 27 32 32 28 31 26 19 21 14 17 17 16 19 26 22 17 21 18 12 16 15 22 24 29 26 28 27 25 22 22 21 12 20 24 26 27 24 22 19 23 26 23 25 22 21 19 15 11 16 9 9 7 4 12 11 11 20 17 19 11 12 14 13 13 14 15 19 21 23 25 27 28
35 14 20 42 41 41 42 41 34 28 22 14 17 16 19 14 19 29 30 31 26 23 22 25 24 17 16 19 25 23 24 20 21 22 14 18 18 25 24 28 25 27 26 26 23 24 16 13 10 20 22 22 19 21 19 23 22 21 20 19 19 15 21 19 14 14 12 2 3 5 11 15 18 18 15 13 12 12 12 14 16 18 22 23 23 25 27 29
34 28 28 40 41 41 40 33 25 22 19 20 19 15 16 14 29 30 33 33 33 32 29 28 25 20 18 15 16 23 24 24 22 21 19 17 19 14 25 27 27 25 26 23 23 21 15 13 14 21 20 19 21 23 23 24 23 22 22 20 21 18 12 9 15 12 11 9 9 4 11 12 18 19 16 14 14 14 16 17 17 17 20 24 27 27 27 29
18 7 17 39 41 40 34 23 20 21 19 21 19 18 18 34 25 30 29 28 31 30 28 27 27 22 20 17 20 23 23 22 22 21 22 20 22 19 28 28 28 26 25 22 24 25 21 18 16 14 19 21 23 24 25 24 22 20 21 20 22 20 19 11 5 11 10 15 9 8 7 17 20 17 16 17 16 15 15 19 18 21 23 25 28 30 30 29
22 15 29 41 41 38 28 17 26 22 15 20 24 23 31 30 21 26 26 27 22 27 30 23 24 25 23 22 19 20 23 17 23 23 22 21 20 23 29 28 28 25 25 23 21 21 28 14 10 18 20 22 22 23 23 24 23 22 21 21 19 19 19 18 18 17 14 9 10 9 9 15 21 22 20 19 18 20 23 22 23 24 24 26 26 26 27 29
28 27 29 38 40 37 23 15 16 20 17 17 23 23 29 23 26 23 23 25 22 26 25 27 26 26 22 25 21 18 21 12 20 22 19 23 23 29 27 27 27 23 21 22 22 24 14 20 16 8 10 16 17 21 18 16 19 21 21 22 22 22 21 21 19 16 12 15 16 10 11 14 21 26 22 20 17 17 17 17 26 24 23 24 23 24 26 27
24 24 31 35 39 35 27 24 18 17 21 17 17 14 24 21 27 25 25 23 28 24 25 25 26 26 25 23 20 19 18 13 13 20 22 25 24 29 27 27 27 25 29 30 34 25 16 18 16 7 5 1 -1 -1 6 12 19 21 20 22 22 22 21 18 15 13 13 14 16 9 13 15 16 18 16 16 16 16 16 16 17 23 21 20 22 23 22 22
20 12 19 25 27 29 28 27 25 23 20 17 14 19 21 17 25 28 26 25 28 29 26 26 26 26 23 22 19 17 16 18 15 11 20 21 22 26 27 26 28 28 28 33 32 23 14 18 16 17 15 13 13 14 20 23 18 17 19 22 22 22 23 22 19 13 16 16 16 17 16 15 15 16 16 16 16 16 16 17 16 17 17 20 20 21 22 23
22 10 15 15 22 22 24 24 21 22 22 22 16 20 16 18 19 19 24 19 23 27 25 26 26 23 22 20 19 16 15 16 15 16 17 20 21 26 25 27 27 31 35 34 32 19 15 16 20 18 19 18 18 19 21 22 18 20 20 20 22 22 22 22 19 19 20 14 16 19 20 19 18 18 18 18 18 18 18 18 18 19 20 21 21 21 28 25
7 22 20 22 19 16 16 23 25 23 22 19 21 21 18 20 21 17 23 25 25 21 22 19 26 26 24 23 20 13 14 14 11 13 18 21 20 22 22 26 26 29 31 26 27 22 18 15 20 19 19 20 21 21 23 23 21 21 20 20 20 22 21 21 21 22 20 18 16 18 20 20 19 19 19 18 18 17 17 17 18 18 19 21 22 23 24 25
19 18 21 18 13 19 22 22 25 25 24 21 21 22 18 19 21 21 21 23 22 22 25 16 19 26 26 23 19 14 15 7 10 12 15 16 18 21 19 22 24 25 26 24 23 18 19 18 17 18 18 20 21 21 22 21 21 21 22 22 22 22 22 22 22 23 23 21 21 21 20 20 19 18 18 18 19 19 18 19 20 20 20 21 22 21 21 21
19 18 14 19 20 17 20 24 24 25 23 26 19 21 21 20 19 21 22 17 12 16 24 20 21 21 25 24 21 17 19 17 14 4 15 21 15 21 20 23 21 25 23 20 19 17 20 17 24 14 14 17 19 20 20 21 21 20 22 22 23 23 23 23 22 22 23 22 23 22 22 21 21 21 21 21 20 21 21 21 20 21 22 22 22 22 22 22
25 22 23 19 17 13 23 25 23 23 19 20 20 21 19 20 20 21 21 22 17 15 23 22 22 20 25 25 24 23 23 21 19 14 22 21 16 23 19 15 25 23 23 20 20 18 16 15 13 11 13 12 11 15 17 17 17 17 18 20 21 21 20 21 21 22 21 20 21 20 20 19 20 21 22 22 22 22 21 21 21 22 22 22 22 22 22 23
29 29 26 20 12 28 20 22 21 22 18 22 22 22 19 19 21 21 17 20 21 20 24 23 22 21 21 24 25 25 26 25 23 23 26 24 24 25 23 22 25 25 24 23 21 18 19 14 11 10 10 9 13 13 13 11 9 9 11 19 21 21 21 21 22 22 23 21 19 19 17 18 17 18 18 17 17 18 19 19 20 20 21 22 22 22 22 22